[[{"header":{"parameterUnit":"m.s-1","parameterCategory":1,"la1":30.2991,"la2":30.254,"lo1":-89.0895,"lo2":-89.0444,"dy":0.0017,"dx":0.0017,"nx":28,"ny":28,"refTime":"2024-08-05T21:00:00:Z","depth":0,"parameterNumber":2,"parameterNumberName":"U-component_of_WINDS"},"data":[0,0,0,0,0,0,0,0,0,0,0,0,0,0,0,0,0,0,0,0,0,0,0,0,0,0,0,0,0,0,0,0,0,0,0,0,0,0,0,0,0,0,0,0,0,0,0,0,0,0,0,0,0,0,0,0,0,0,3.3302,3.3303,0,3.3362,3.3363,3.3363,3.3293,3.329,3.3288,3.3285,3.3348,3.3352,3.3356,0,0,0,0,0,0,0,0,0,0,0,0,0,3.3128,3.3132,3.3302,3.3303,3.3303,3.3362,3.3363,3.3364,3.3293,3.329,3.3287,3.3284,3.3346,3.3351,3.3356,0,0,0,0,0,0,0,0,0,0,0,0,0,3.3198,3.3133,3.3302,3.3275,3.3274,3.3362,3.3363,3.3364,3.3294,3.329,3.3286,3.3282,3.3345,3.3351,3.3357,3.3474,0,0,3.3376,3.3378,0,0,0,0,0,0,0,0,3.3194,3.3204,3.3279,3.3277,3.3276,3.3316,3.3324,3.3401,3.3295,3.3286,3.3285,3.328,3.334,3.3347,3.3367,3.3477,3.348,3.3376,3.338,3.3383,3.3384,0,0,0,0,0,0,0,3.3189,3.3201,3.3326,3.328,3.3278,3.3261,3.3267,3.3339,3.3335,3.3287,3.3282,3.329,3.3339,3.3361,3.3368,3.3481,3.3376,3.3382,3.3385,3.3388,3.3693,3.3697,0,0,0,0,0,0,3.3187,3.3198,3.3324,3.3327,3.3224,3.3268,3.3274,3.3307,3.3334,3.3334,3.3293,3.3286,3.3352,3.336,3.337,3.351,3.3383,3.3388,3.3392,3.3689,3.3694,3.3699,0,0,0,0,0,0,3.3184,3.3199,3.3321,3.3261,3.3276,3.3275,3.3313,3.331,3.3332,3.3339,3.3338,3.3316,3.3349,3.3361,3.3449,3.3511,3.3391,3.3397,3.3683,3.369,3.3696,3.3792,0,0,0,0,0,0,3.3179,3.3198,3.3242,3.3263,3.3279,3.34,3.3317,3.3314,3.3343,3.3335,3.336,3.3361,3.3347,3.344,3.3455,3.3518,3.3402,3.3678,3.3686,3.3694,3.3783,3.3801,3.3816,0,0,0,0,0,3.3173,3.3266,3.3245,3.326,3.3334,3.3403,3.3413,3.3395,3.3348,3.3393,3.3398,3.336,3.3502,3.345,3.3466,3.3531,3.3674,3.3684,3.3694,3.3776,3.3797,3.3815,0,0,0,0,0,0,3.3253,3.3268,3.3245,3.3347,3.3375,3.3391,3.3447,3.3418,3.3459,3.345,3.3427,3.3433,3.3528,3.3538,3.348,3.3648,3.358,3.3594,3.3637,3.3658,3.3674,3.367,3.3407,0,0,0,0,0,3.3282,3.3337,3.3348,3.3437,3.3452,3.3448,3.3477,3.3461,3.3489,3.35,3.3511,3.3539,3.359,3.3624,3.3672,3.3784,3.379,3.3837,3.3854,3.3867,3.3879,3.3941,3.3963,3.3731,3.3731,3.3731,0,0,3.3344,3.3359,3.3395,3.3454,3.3473,3.3531,3.3458,3.3521,3.3565,3.351,3.3594,3.3603,3.3634,3.3735,3.378,3.3747,3.3945,3.388,3.389,3.3895,3.3954,3.3976,3.3995,3.3738,3.3737,3.3736,0,0,3.3486,3.3502,3.358,3.3601,3.3631,3.3628,3.3647,3.3668,3.3672,3.3756,3.3717,3.3768,3.3857,3.388,3.3904,3.4058,3.4025,3.4074,3.416,3.4221,3.4239,3.4255,3.4311,3.4331,3.4086,3.4086,3.4086,0,3.3558,3.3643,3.3623,3.369,3.3718,3.3672,3.3751,3.3772,3.3817,3.3837,3.3799,3.391,3.3927,3.4035,3.4072,3.4093,3.4114,3.4071,3.4238,3.4254,3.4268,3.4322,3.4343,3.4092,3.4091,3.4091,3.409,0,3.3732,3.3792,3.3851,3.3896,3.393,3.4003,3.3994,3.4032,3.4014,3.4015,3.4103,3.4122,3.4173,3.4197,3.418,3.4303,3.4281,3.4241,3.4173,3.4297,3.4346,3.4367,3.41,3.4098,3.4096,3.4095,0,0,3.3925,3.3959,3.3981,3.4001,3.4032,3.4078,3.415,3.42,3.4234,3.4266,3.4327,3.4403,3.4367,3.4394,3.4379,3.4433,3.4555,3.4386,3.4386,3.4418,3.4693,3.4724,3.4748,3.4534,3.4537,3.454,3.4691,0,3.4068,3.4192,3.4176,3.4295,3.4351,3.4309,3.4371,3.4398,3.4401,3.445,3.4453,3.4509,3.4456,3.4472,3.4523,3.4529,3.461,3.4518,3.459,3.4593,3.4585,3.4773,3.4806,3.4947,3.471,3.4714,3.4716,0,3.4251,3.4291,3.4416,3.444,3.4463,3.4519,3.4565,3.4612,3.4642,3.4641,3.4672,3.4649,3.4722,3.4653,3.4754,3.4692,3.472,3.4728,3.4733,3.474,3.4662,3.4786,3.4991,3.5013,3.4746,3.4744,3.4742,0,3.4381,3.4466,3.4552,3.4571,3.4601,3.4642,3.4656,3.4682,3.4714,3.4754,3.4775,3.4824,3.485,3.4889,3.488,3.483,3.4984,3.4913,3.4986,3.4986,3.502,3.5018,3.5234,3.5038,3.5038,3.5037,3.5037,0,3.4543,3.4621,3.4611,3.4664,3.4751,3.4733,3.482,3.4829,3.4853,3.4908,3.4874,3.4926,3.491,3.4962,3.4956,3.5041,3.5053,3.5055,3.5053,3.5059,3.5059,3.5078,3.5068,3.5043,3.5042,3.5041,3.504,0,3.4702,3.4698,3.4789,3.4811,3.4818,3.4881,3.49,3.4951,3.4952,3.5022,3.5037,3.504,3.5099,3.5094,3.5161,3.5156,3.5263,3.5248,3.5253,3.525,3.5323,3.5317,3.5559,3.559,3.5374,3.5376,3.5377,0,3.4806,3.4865,3.4893,3.4928,3.4945,3.5001,3.5033,3.5019,3.5055,3.5094,3.5141,3.5197,3.5242,3.5339,3.5347,3.5399,3.5386,3.5467,3.5393,3.5398,3.5388,3.5385,3.5391,3.5482,3.5484,3.5486,3.5488,0,3.4991,3.4986,3.5034,3.5083,3.5123,3.5161,3.5195,3.5225,3.5214,3.5256,3.5317,3.5352,3.5421,3.5478,3.5527,3.5543,3.5515,3.5511,3.5531,3.5538,3.5538,3.554,3.5293,3.5506,3.5504,3.5502,3.5502,3.5501,3.5126,3.5177,3.5206,3.5261,3.5286,3.5319,3.5368,3.5376,3.5426,3.5481,3.5469,3.5538,3.5569,3.5632,3.5653,3.5707,3.5678,3.5706,3.5713,3.5721,3.573,3.553,3.5716,3.5715,3.5715,3.5714,3.5714,0,3.531,3.5327,3.5378,3.5427,3.5471,3.5441,3.5477,3.5516,3.5577,3.5608,3.5653,3.5724,3.578,3.5793,3.5847,3.5888,3.5876,3.5903,3.59,3.5904,3.5752,3.573,3.5911,3.5911,3.5911,3.5911,3.5911,3.5911,3.5411,3.5497,3.5496,3.5594,3.561,3.5678,3.5702,3.5732,3.5757,3.5838,3.5884,3.5892,3.5916,3.5972,3.6022,3.6025,3.6047,3.6079,3.6076,3.5934,3.5914,3.5896,3.5875,3.6083,3.6083,3.6223,3.6225,3.6226]},{"header":{"parameterUnit":"m.s-1","parameterCategory":1,"la1":30.2991,"la2":30.254,"lo1":-89.0895,"lo2":-89.0444,"dy":0.0017,"dx":0.0017,"nx":28,"ny":28,"refTime":"2024-08-05T21:00:00:Z","depth":0,"parameterNumber":3,"parameterNumberName":"V-component_of_WINDS"},"data":[0,0,0,0,0,0,0,0,0,0,0,0,0,0,0,0,0,0,0,0,0,0,0,0,0,0,0,0,0,0,0,0,0,0,0,0,0,0,0,0,0,0,0,0,0,0,0,0,0,0,0,0,0,0,0,0,0,0,-2.1189,-2.119,0,-2.1291,-2.1292,-2.1294,-2.1303,-2.1302,-2.1301,-2.13,-2.1404,-2.1407,-2.1411,0,0,0,0,0,0,0,0,0,0,0,0,0,-2.1001,-2.1004,-2.1188,-2.119,-2.1191,-2.1291,-2.1292,-2.1294,-2.1303,-2.1302,-2.1301,-2.1299,-2.1402,-2.1407,-2.1411,0,0,0,0,0,0,0,0,0,0,0,0,0,-2.1091,-2.1005,-2.1188,-2.1208,-2.1211,-2.1291,-2.1292,-2.1294,-2.1303,-2.1302,-2.13,-2.1299,-2.1401,-2.1406,-2.1412,-2.1479,0,0,-2.1429,-2.1432,0,0,0,0,0,0,0,0,-2.1085,-2.1097,-2.1204,-2.1207,-2.121,-2.1283,-2.1264,-2.1356,-2.1304,-2.1268,-2.13,-2.1298,-2.1365,-2.1373,-2.1396,-2.1484,-2.1489,-2.143,-2.1433,-2.1436,-2.1437,0,0,0,0,0,0,0,-2.1079,-2.1093,-2.1229,-2.1205,-2.1209,-2.1211,-2.1222,-2.1282,-2.1324,-2.1271,-2.1272,-2.1284,-2.1366,-2.139,-2.1398,-2.149,-2.143,-2.1435,-2.1438,-2.144,-2.164,-2.1642,0,0,0,0,0,0,-2.1069,-2.1088,-2.1226,-2.1232,-2.1142,-2.1216,-2.1228,-2.1261,-2.1324,-2.1332,-2.1285,-2.1284,-2.1382,-2.1392,-2.1402,-2.1486,-2.1436,-2.1441,-2.1444,-2.1638,-2.1641,-2.1643,0,0,0,0,0,0,-2.1065,-2.1082,-2.1222,-2.116,-2.1178,-2.1221,-2.1257,-2.1264,-2.1288,-2.1334,-2.1342,-2.1303,-2.1381,-2.1394,-2.1461,-2.149,-2.1443,-2.1449,-2.1636,-2.1639,-2.1642,-2.1654,0,0,0,0,0,0,-2.106,-2.108,-2.1106,-2.1161,-2.1182,-2.1278,-2.1259,-2.1267,-2.1298,-2.1297,-2.1353,-2.136,-2.138,-2.1452,-2.1466,-2.1497,-2.1453,-2.1634,-2.1638,-2.1641,-2.1651,-2.1657,-2.1662,0,0,0,0,0,-2.1053,-2.1105,-2.1107,-2.1124,-2.1215,-2.128,-2.1292,-2.1315,-2.13,-2.1327,-2.1357,-2.1358,-2.1484,-2.1459,-2.1475,-2.1507,-2.1632,-2.1636,-2.1641,-2.1649,-2.1656,-2.1662,0,0,0,0,0,0,-2.1051,-2.1112,-2.1116,-2.1187,-2.1228,-2.1281,-2.1316,-2.1321,-2.1367,-2.1365,-2.1391,-2.1403,-2.1469,-2.1495,-2.1465,-2.1577,-2.1557,-2.1564,-2.1557,-2.1564,-2.1569,-2.1562,-2.1458,0,0,0,0,0,-2.1059,-2.1107,-2.1158,-2.1215,-2.1236,-2.1272,-2.1301,-2.1316,-2.136,-2.1377,-2.1412,-2.1454,-2.1504,-2.1535,-2.1583,-2.1655,-2.1667,-2.1685,-2.1691,-2.1695,-2.1701,-2.1742,-2.1751,-2.1657,-2.1657,-2.1657,0,0,-2.1076,-2.1115,-2.1144,-2.1216,-2.125,-2.1299,-2.1287,-2.1339,-2.1376,-2.1385,-2.145,-2.1477,-2.1526,-2.1596,-2.1628,-2.162,-2.173,-2.17,-2.1703,-2.1708,-2.1748,-2.1757,-2.1764,-2.166,-2.1659,-2.1659,0,0,-2.1132,-2.1166,-2.1218,-2.1253,-2.1305,-2.1329,-2.1341,-2.1394,-2.1413,-2.1479,-2.1487,-2.1531,-2.1615,-2.165,-2.1679,-2.175,-2.1753,-2.1765,-2.1793,-2.1832,-2.184,-2.1846,-2.1872,-2.1881,-2.1771,-2.1771,-2.1771,0,-2.1146,-2.122,-2.1244,-2.1297,-2.1329,-2.134,-2.1394,-2.1426,-2.1491,-2.1512,-2.1502,-2.1609,-2.1642,-2.1721,-2.1739,-2.1761,-2.1777,-2.1758,-2.1837,-2.1844,-2.185,-2.1875,-2.1885,-2.1772,-2.1772,-2.1772,-2.1772,0,-2.1236,-2.1287,-2.1323,-2.1387,-2.1423,-2.1475,-2.1508,-2.1541,-2.1553,-2.1578,-2.1645,-2.1687,-2.1744,-2.1763,-2.1774,-2.1844,-2.1837,-2.1831,-2.1812,-2.186,-2.1884,-2.1894,-2.1774,-2.1773,-2.1773,-2.1773,0,0,-2.1292,-2.1369,-2.1382,-2.1411,-2.147,-2.151,-2.1564,-2.1621,-2.1649,-2.1694,-2.174,-2.1811,-2.1807,-2.184,-2.1855,-2.189,-2.1945,-2.188,-2.1882,-2.1891,-2.2025,-2.2029,-2.204,-2.1947,-2.1949,-2.1951,-2.2021,0,-2.1355,-2.1451,-2.1475,-2.1557,-2.1606,-2.1618,-2.1665,-2.1706,-2.1731,-2.1776,-2.1804,-2.1855,-2.1845,-2.1865,-2.19,-2.1931,-2.1972,-2.1926,-2.1991,-2.1993,-2.1978,-2.2053,-2.2057,-2.2121,-2.2031,-2.2032,-2.2033,0,-2.1441,-2.1488,-2.1575,-2.1629,-2.165,-2.1692,-2.1747,-2.1789,-2.1837,-2.1853,-2.189,-2.1903,-2.1959,-2.1937,-2.2016,-2.1984,-2.2012,-2.2032,-2.2035,-2.2042,-2.2016,-2.2062,-2.2142,-2.2152,-2.2048,-2.2047,-2.2046,0,-2.1474,-2.156,-2.1623,-2.1648,-2.1712,-2.1741,-2.1769,-2.1815,-2.1848,-2.1896,-2.1917,-2.197,-2.2,-2.2041,-2.2067,-2.2049,-2.2145,-2.2124,-2.216,-2.2159,-2.2179,-2.2178,-2.2266,-2.2197,-2.2197,-2.2197,-2.2196,0,-2.1542,-2.1595,-2.1639,-2.1679,-2.1739,-2.1766,-2.1825,-2.1853,-2.1894,-2.1939,-2.1952,-2.1994,-2.2027,-2.2074,-2.2095,-2.2158,-2.217,-2.2185,-2.219,-2.2184,-2.2182,-2.2203,-2.2199,-2.2199,-2.2199,-2.2198,-2.2198,0,-2.1589,-2.1621,-2.1691,-2.1747,-2.1762,-2.1804,-2.1851,-2.189,-2.1916,-2.1973,-2.1988,-2.2029,-2.2085,-2.2116,-2.2185,-2.22,-2.227,-2.2272,-2.2254,-2.2256,-2.2291,-2.2287,-2.2395,-2.2411,-2.2331,-2.2332,-2.2332,0,-2.163,-2.1672,-2.1732,-2.1763,-2.1792,-2.1842,-2.1877,-2.1905,-2.194,-2.1998,-2.203,-2.2087,-2.2134,-2.2222,-2.2258,-2.2312,-2.2316,-2.235,-2.2324,-2.2317,-2.2317,-2.2315,-2.2319,-2.2355,-2.2355,-2.2356,-2.2356,0,-2.17,-2.1715,-2.1763,-2.1818,-2.1858,-2.1903,-2.1946,-2.1971,-2.2007,-2.2046,-2.2104,-2.214,-2.2212,-2.2268,-2.2325,-2.2354,-2.2362,-2.2364,-2.2376,-2.237,-2.2358,-2.2366,-2.2267,-2.2362,-2.2361,-2.2361,-2.2361,-2.236,-2.1747,-2.1784,-2.1833,-2.1887,-2.1923,-2.1964,-2.2004,-2.2036,-2.2084,-2.2145,-2.2159,-2.222,-2.2268,-2.2345,-2.2376,-2.2424,-2.2418,-2.2434,-2.2438,-2.2441,-2.2443,-2.235,-2.2435,-2.2435,-2.2434,-2.2434,-2.2434,0,-2.1818,-2.185,-2.19,-2.1961,-2.2004,-2.2008,-2.2057,-2.2093,-2.2146,-2.219,-2.2237,-2.2303,-2.2359,-2.2399,-2.2456,-2.2487,-2.2492,-2.2501,-2.2499,-2.2506,-2.2445,-2.243,-2.2496,-2.2496,-2.2496,-2.2496,-2.2496,-2.2496,-2.186,-2.1925,-2.1945,-2.2028,-2.206,-2.212,-2.2148,-2.2186,-2.2221,-2.2296,-2.2342,-2.2368,-2.2412,-2.2471,-2.2522,-2.2533,-2.2554,-2.2562,-2.2573,-2.2516,-2.251,-2.2503,-2.2489,-2.2566,-2.2566,-2.263,-2.263,-2.2631]}]]